When you browse on this site, cookies collect data to enhance your experience and personalize the content and advertising you see.
Visit our Privacy Policy to learn more. By continuing to use the site, you agree to this use of cookies and data.

Hourly Weather Batina

Today, 28 September, Monday

Time Temperature Precipitation Wind Pressure Humidity
00:00 +14°C° 0 mm 1 mps 669 mmHg 76%
01:00 +14°C° 0 mm 1 mps 669 mmHg 75%
02:00 +13°C° 0 mm 1 mps 668 mmHg 75%
03:00 +13°C° 0 mm 1 mps 668 mmHg 74%
04:00 +13°C° 0 mm 1 mps 669 mmHg 74%
05:00 +13°C° 0 mm 1 mps 669 mmHg 75%
06:00 +13°C° 0 mm 1 mps 670 mmHg 75%
07:00 +15°C° 0 mm 2 mps 670 mmHg 62%
08:00 +16°C° 0 mm 2 mps 671 mmHg 49%
09:00 +18°C° 0 mm 3 mps 672 mmHg 37%
10:00 +19°C° 0 mm 3 mps 672 mmHg 32%
11:00 +20°C° 0 mm 4 mps 673 mmHg 28%
12:00 +21°C° 0 mm 4 mps 673 mmHg 24%
13:00 +22°C° 0 mm 4 mps 673 mmHg 23%
14:00 +22°C° 0 mm 4 mps 672 mmHg 22%
15:00 +22°C° 0 mm 4 mps 672 mmHg 21%
16:00 +21°C° 0 mm 3 mps 672 mmHg 24%
17:00 +20°C° 0 mm 2 mps 672 mmHg 27%
18:00 +19°C° 0 mm 1 mps 672 mmHg 30%
19:00 +19°C° 0 mm 1 mps 672 mmHg 33%
20:00 +18°C° 0 mm 1 mps 672 mmHg 35%
21:00 +16°C° 0 mm 1 mps 673 mmHg 38%
22:00 +15°C° 0 mm 1 mps 672 mmHg 40%
23:00 +15°C° 0 mm 1 mps 672 mmHg 42%

Tomorrow, 29 September, Tuesday

Time Temperature Precipitation Wind Pressure Humidity
00:00 +14°C° 0 mm 1 mps 672 mmHg 44%
01:00 +14°C° 0 mm 1 mps 672 mmHg 42%
02:00 +14°C° 0 mm 1 mps 672 mmHg 39%
03:00 +14°C° 0 mm 1 mps 671 mmHg 36%
04:00 +14°C° 0 mm 1 mps 672 mmHg 36%
05:00 +15°C° 0 mm 1 mps 672 mmHg 35%
06:00 +15°C° 0 mm 1 mps 672 mmHg 35%
07:00 +17°C° 0 mm 2 mps 673 mmHg 31%
08:00 +20°C° 0 mm 2 mps 674 mmHg 28%
09:00 +22°C° 0 mm 3 mps 675 mmHg 24%
10:00 +23°C° 0 mm 4 mps 675 mmHg 26%
11:00 +25°C° 0 mm 4 mps 675 mmHg 27%
12:00 +26°C° 0 mm 5 mps 675 mmHg 29%
13:00 +26°C° 0 mm 5 mps 674 mmHg 30%
14:00 +26°C° 0 mm 5 mps 674 mmHg 31%
15:00 +26°C° 0 mm 5 mps 673 mmHg 33%
16:00 +25°C° 0 mm 4 mps 673 mmHg 37%
17:00 +22°C° 0 mm 3 mps 673 mmHg 41%
18:00 +21°C° 0 mm 2 mps 672 mmHg 45%
19:00 +21°C° 0 mm 2 mps 672 mmHg 44%
20:00 +21°C° 0 mm 2 mps 672 mmHg 44%
21:00 +20°C° 0 mm 2 mps 672 mmHg 44%
22:00 +20°C° 0 mm 2 mps 672 mmHg 44%
23:00 +20°C° 0 mm 3 mps 672 mmHg 44%

Day after tomorrow, 30 September, Wednesday

Time Temperature Precipitation Wind Pressure Humidity
00:00 +20°C° 0 mm 3 mps 672 mmHg 44%
01:00 +20°C° 0 mm 3 mps 671 mmHg 47%
02:00 +19°C° 0 mm 3 mps 671 mmHg 50%
03:00 +19°C° 0 mm 3 mps 671 mmHg 53%
04:00 +19°C° 0 mm 3 mps 671 mmHg 54%
05:00 +19°C° 0 mm 3 mps 671 mmHg 54%
06:00 +19°C° 0 mm 3 mps 671 mmHg 55%
07:00 +21°C° 0 mm 3 mps 671 mmHg 49%
08:00 +24°C° 0 mm 3 mps 672 mmHg 42%
09:00 +26°C° 0 mm 4 mps 673 mmHg 35%
10:00 +27°C° 0 mm 4 mps 673 mmHg 33%
11:00 +28°C° 0 mm 4 mps 673 mmHg 31%
12:00 +29°C° 0 mm 4 mps 673 mmHg 28%
13:00 +29°C° 0 mm 4 mps 672 mmHg 28%
14:00 +29°C° 0 mm 4 mps 672 mmHg 28%
15:00 +29°C° 0 mm 4 mps 671 mmHg 28%
16:00 +28°C° 0 mm 3 mps 671 mmHg 32%
17:00 +26°C° 0 mm 2 mps 671 mmHg 36%
18:00 +25°C° 0 mm 1 mps 670 mmHg 39%
19:00 +24°C° 0 mm 1 mps 670 mmHg 42%
20:00 +24°C° 0 mm 1 mps 670 mmHg 44%
21:00 +23°C° 0 mm 1 mps 670 mmHg 46%
22:00 +22°C° 0 mm 1 mps 669 mmHg 48%
23:00 +22°C° 0 mm 1 mps 669 mmHg 50%

1 October, Thursday

Time Temperature Precipitation Wind Pressure Humidity
00:00 +19°C° 0 mm 0 mps 669 mmHg 52%
01:00 +19°C° 0 mm 0 mps 668 mmHg 53%
02:00 +19°C° 0 mm 0 mps 668 mmHg 54%
03:00 +19°C° 0 mm 0 mps 667 mmHg 55%
04:00 +21°C° 0 mm 1 mps 667 mmHg 54%
05:00 +21°C° 0 mm 1 mps 667 mmHg 54%
06:00 +21°C° 0 mm 1 mps 667 mmHg 53%
07:00 +23°C° 0 mm 1 mps 668 mmHg 47%
08:00 +24°C° 0 mm 2 mps 669 mmHg 42%
09:00 +26°C° 0 mm 2 mps 669 mmHg 36%
10:00 +27°C° 0 mm 3 mps 669 mmHg 33%
11:00 +28°C° 0 mm 4 mps 669 mmHg 31%
12:00 +29°C° 0 mm 5 mps 669 mmHg 28%
13:00 +29°C° 0 mm 5 mps 669 mmHg 28%
14:00 +29°C° 0 mm 5 mps 669 mmHg 28%
15:00 +29°C° 0 mm 6 mps 669 mmHg 27%
16:00 +27°C° 0 mm 5 mps 669 mmHg 31%
17:00 +26°C° 0 mm 4 mps 668 mmHg 34%
18:00 +24°C° 0 mm 2 mps 668 mmHg 37%
19:00 +23°C° 0 mm 2 mps 668 mmHg 41%
20:00 +22°C° 0 mm 1 mps 668 mmHg 45%
21:00 +19°C° 0 mm 0 mps 668 mmHg 49%
22:00 +21°C° 0 mm 1 mps 668 mmHg 49%
23:00 +21°C° 0 mm 1 mps 668 mmHg 49%

2 October, Friday

Time Temperature Precipitation Wind Pressure Humidity
00:00 +20°C° 0 mm 1 mps 668 mmHg 49%
01:00 +20°C° 0 mm 1 mps 667 mmHg 49%
02:00 +19°C° 0 mm 1 mps 667 mmHg 49%
03:00 +19°C° 0 mm 1 mps 666 mmHg 49%
04:00 +19°C° 0 mm 1 mps 666 mmHg 48%
05:00 +19°C° 0 mm 1 mps 666 mmHg 47%
06:00 +18°C° 0 mm 1 mps 667 mmHg 46%
07:00 +19°C° 0 mm 2 mps 667 mmHg 37%
08:00 +23°C° 0 mm 2 mps 668 mmHg 29%
09:00 +25°C° 0 mm 2 mps 669 mmHg 21%
10:00 +26°C° 0 mm 4 mps 669 mmHg 18%
11:00 +28°C° 0 mm 6 mps 669 mmHg 15%
12:00 +29°C° 0 mm 7 mps 669 mmHg 13%
13:00 +29°C° 0 mm 7 mps 668 mmHg 14%
14:00 +29°C° 0 mm 7 mps 668 mmHg 15%
15:00 +28°C° 0 mm 7 mps 668 mmHg 17%
16:00 +27°C° 0 mm 5 mps 667 mmHg 20%
17:00 +25°C° 0 mm 4 mps 667 mmHg 23%
18:00 +24°C° 0 mm 3 mps 666 mmHg 27%
19:00 +22°C° 0 mm 3 mps 666 mmHg 27%
20:00 +22°C° 0 mm 3 mps 666 mmHg 28%
21:00 +22°C° 0 mm 3 mps 666 mmHg 28%
22:00 +21°C° 0 mm 3 mps 666 mmHg 29%
23:00 +21°C° 0 mm 3 mps 665 mmHg 29%

3 October, Saturday

Time Temperature Precipitation Wind Pressure Humidity
00:00 +21°C° 0 mm 4 mps 665 mmHg 30%
01:00 +21°C° 0 mm 3 mps 664 mmHg 31%
02:00 +20°C° 0 mm 3 mps 664 mmHg 33%
03:00 +20°C° 0 mm 3 mps 664 mmHg 34%
04:00 +20°C° 0 mm 3 mps 664 mmHg 35%
05:00 +20°C° 0 mm 3 mps 664 mmHg 35%
06:00 +20°C° 0 mm 3 mps 664 mmHg 36%
07:00 +22°C° 0 mm 4 mps 665 mmHg 33%
08:00 +25°C° 0 mm 5 mps 665 mmHg 29%
09:00 +27°C° 0 mm 6 mps 666 mmHg 26%
10:00 +28°C° 0 mm 7 mps 666 mmHg 25%
11:00 +29°C° 0 mm 8 mps 665 mmHg 25%
12:00 +31°C° 0 mm 9 mps 665 mmHg 24%
13:00 +29°C° 0 mm 9 mps 665 mmHg 24%
14:00 +29°C° 0 mm 9 mps 665 mmHg 24%
15:00 +29°C° 0 mm 9 mps 664 mmHg 25%
16:00 +27°C° 0 mm 7 mps 664 mmHg 28%
17:00 +25°C° 0 mm 5 mps 664 mmHg 32%
18:00 +24°C° 0 mm 3 mps 663 mmHg 35%
19:00 +23°C° 0 mm 2 mps 664 mmHg 37%
20:00 +23°C° 0 mm 2 mps 664 mmHg 39%
21:00 +22°C° 0 mm 1 mps 664 mmHg 40%
22:00 +22°C° 0 mm 1 mps 664 mmHg 42%
23:00 +21°C° 0 mm 1 mps 664 mmHg 43%
Show more